Regional Weather Roundup
Issued by NWS

Home | Current Version | Previous Version | Graphics & Text | Print | Product List | Glossary On
Versions: 1 2 3 4 5 6 7 8 9 10 11 12 13 14 15 16 17 18 19 20 21 22 23 24 25 26 27 28 29 30 31 32 33 34 35 36 37 38 39 40 41 42 43 44 45 46 47 48 49 50
000
ASUS43 KIND 232309
RWRIN

WEATHER ROUNDUP FOR INDIANA
NATIONAL WEATHER SERVICE INDIANAPOLIS IN
600 PM EST THU FEB 23 2017

NOTE: "FAIR" INDICATES FEW OR NO CLOUDS BELOW 12,000 FEET WITH NO
SIGNIFICANT WEATHER AND/OR OBSTRUCTIONS TO VISIBILITY.

* - STATION DOES NOT REPORT WEATHER SUCH AS PRECIPITATION OR FOG.

+ - STATION NOT QUALITY CONTROLLED BY THE NATIONAL WEATHER SERVICE.
    USE DATA WITH CAUTION...ESPECIALLY DEWPOINT AND RELATIVE
    HUMIDITY OBSERVATIONS.

INZ001>003-010>013-019-020-240000-
NORTHWEST INDIANA

CITY           SKY/WX    TMP DP  RH WIND       PRES   REMARKS
GARY /AIRPORT/ LGT RAIN  39  36  87 N9        29.83R
KNOX *+        CLOUDY    45  25  45 N10       29.77R
LA PORTE +     MOCLDY    39  36  87 N8        29.80R
MICHIGAN CITY+ CLOUDY    37  37 100 N5        29.82R
MONTICELLO +   FAIR      55  46  71 NE7       29.73R
RENSSELAER +   CLOUDY    46  43  87 NE13      29.75R
VALPARAISO     LGT RAIN  40  37  89 N12       29.77F FOG

$$

LMZ046-743>745-240000-
SOUTHERN LAKE MICHIGAN

STATION/POSITION TIME  TEMP    WIND        PRES    WAVE
                       AIR SEA DIR/SP/G            HT
                 (UTC) (F)     (DEG/KT/KT) (MB)    (FT)
BURNS HARBOR     2240   37      40/ 10/ 12 1010.2S
MICHIGAN CITY    2240   36      10/  7/  8   N/A

$$

INZ004-005-014>016-021>024-240000-
NORTH CENTRAL INDIANA

CITY           SKY/WX    TMP DP  RH WIND       PRES   REMARKS
ELKHART        PTCLDY    48  41  76 N5        29.78R
GOSHEN         FAIR      52  42  69 NE7       29.76S
LOGANSPORT +   FAIR      57  50  77 CALM      29.74R
PERU/GRISSOM   FAIR      59  57  92 SE3       29.72R
ROCHESTER +    FAIR      54  45  71 N7        29.75R
SOUTH BEND     FAIR      43  38  82 N6        29.80R
WARSAW +       FAIR      54  45  71 NE5       29.76R

$$

INZ006>009-017-018-025>027-240000-
NORTHEAST INDIANA

CITY           SKY/WX    TMP DP  RH WIND       PRES   REMARKS
ANGOLA *+      CLEAR     54  46  76 CALM      29.76S
AUBURN +       FAIR      59  45  58 CALM      29.76S
FORT WAYNE     CLOUDY    60  52  74 CALM      29.74F
HUNTINGTON +   FAIR      59  54  82 CALM      29.73F
KENDALLVILLE + FAIR      55  47  73 NE5       29.76S

$$

INZ028-029-035-036-043>045-051>053-240000-
WEST CENTRAL INDIANA

CITY           SKY/WX    TMP DP  RH WIND       PRES   REMARKS
LAFAYETTE      FAIR      58  50  75 NE8       29.71S
TERRE HAUTE    CLOUDY    67  53  61 S8        29.69S

$$

INZ030>032-037>040-046>048-054>057-064-065-240000-
CENTRAL INDIANA

CITY           SKY/WX    TMP DP  RH WIND       PRES   REMARKS
CP ATTERBURY + CLOUDY    66  54  63 SE7       29.73S
COLUMBUS       MOCLDY    64  57  77 SE6       29.74S
FRANKFORT +    FAIR      63  56  80 E6        29.74S
GREENWOOD *+   MOCLDY    67  55  64 S8        29.73S
INDIANAPOLIS   CLOUDY    68  53  58 S10       29.71S
-EAGLE CREEK   MOCLDY    66  54  65 E6        29.71R
KOKOMO +       FAIR      59  54  83 SE7       29.74R
MARION +       FAIR      59  54  83 E5        29.74S
MT COMFORT *+  CLOUDY    63  55  77 E8        29.74R
SHELBYVILLE    CLOUDY    67  54  63 S9        29.73S
ZIONSVILLE +   MOCLDY    62  55  78 E5        29.73R

$$

INZ033-034-041-042-049-050-058-059-240000-
EAST CENTRAL INDIANA

CITY           SKY/WX    TMP DP  RH WIND       PRES   REMARKS
MUNCIE         FAIR      61  54  77 E6        29.74F

$$

INZ060-061-067>069-081>083-085>088-240000-
SOUTHWEST INDIANA

CITY           SKY/WX    TMP DP  RH WIND       PRES   REMARKS
EVANSVILLE     MOCLDY    71  53  52 S15       29.69S
HUNTINGBURG *+ CLOUDY    68  55  64 S8        29.71S
WASHINGTON +   MOCLDY    67  54  62 S7        29.70S

$$

INZ062-063-066-070>080-084-089>092-240000-
SOUTH CENTRAL AND SOUTHEAST INDIANA

CITY           SKY/WX    TMP DP  RH WIND       PRES   REMARKS
BEDFORD +      CLOUDY   N/A N/A N/A S3        29.71F
BLOOMINGTON    CLOUDY    67  54  63 SE7       29.72R
MADISON *+     CLOUDY    64  54  68 SE6       29.78R
NORTH VERNON + CLOUDY    66  55  68 CALM      29.75S
SEYMOUR +      CLOUDY    66  57  72 E6        29.73

$$




USA.gov is the U.S. government's official web portal to all federal, state and local government web resources and services.